Location: Asheville, NC
(35.6000°N, 82.5500°W)
Time: 17:43:18
(UTC-04:00)

SRMSAT - Pass Details

Date: 10 January 2018
Orbit: 848 x 866 km, 20.0° (Epoch: 16 July)

Event Time Altitude Azimuth Distance (km) Brightness Sun altitude
Rises 19:57:06 0° 238° (WSW) 3,420 ? -28.2°
Reaches altitude 10° 20:00:33 10° 219° (SW) 2,481 ? -28.9°
Maximum altitude 20:04:17 17° 180° (S) 2,020 ? -29.6°
Enters shadow 20:04:43 17° 174° (S) 2,026 ? -29.7°
